Location: Cella
(44.7333°N, 10.5667°E)
Time: 13:09:12
(UTC+00:00)

COSMOS 1867 COOLANT - Pass Details

Date: 23 September 2021
Orbit: 770 x 802 km, 65.0° (Epoch: 15 October)

Event Time Altitude Azimuth Distance (km) Brightness Sun altitude
Rises 18:56:51 0° 329° (NNW) 3,320 ? -18.9°
Reaches altitude 10° 19:00:18 10° 351° (N) 2,387 ? -19.5°
Maximum altitude 19:03:39 16° 29° (NNE) 1,988 ? -20.1°
Enters shadow 19:05:14 14° 49° (NE) 2,083 ? -20.3°
